Lapse_Rate
0.7 0.9 1.1 0.4 0.3 0.4 0.4 0.6 0.9 1.0 1.4 1.6 2.0 3.2 3.7 3.9 4.0 6.3 8.6 7.5 9.1 8.0 8.5 8.7 8.6 7.8 7.6 7.5 6.5 7.4 6.9 7.1 6.7 6.5 6.5 6.5 6.5 6.5 6.5 6.5 6.5 6.5 6.5 6.5 6.5 6.5 6.5 7.2 6.8 6.5 6.7 6.3 7.3 7.6
0.9 1.0 0.9 0.3 0.2 0.3 0.3 0.6 1.3 1.4 1.4 1.5 2.0 2.8 3.3 3.6 4.0 4.2 9.2 8.4 7.8 7.6 8.6 9.5 9.5 9.5 9.1 8.7 8.0 7.8 7.0 7.1 7.2 6.5 6.5 6.5 6.5 6.5 6.5 6.5 6.5 6.5 6.5 6.5 6.5 6.5 6.8 7.4 7.2 7.8 7.6 6.8 7.3 7.5
0.8 1.1 0.9 0.4 0.1 0.2 0.4 0.7 1.4 1.7 1.6 1.6 1.6 2.2 2.7 3.1 3.3 3.5 9.9 9.9 9.7 8.8 8.0 8.1 8.3 9.5 10.0 9.7 9.8 7.2 7.7 8.0 7.4 8.2 6.9 6.5 6.5 6.5 6.5 6.5 6.5 6.5 7.2 6.5 6.5 6.5 6.7 7.3 7.7 7.7 6.1 7.0 7.3 7.7
1.0 1.3 1.0 0.4 0.0 0.3 0.3 0.9 1.3 1.5 1.7 2.1 2.1 2.3 2.3 2.3 2.7 3.6 9.8 10.1 9.6 8.9 7.1 7.4 9.6 8.9 9.8 10.0 9.6 9.5 8.9 9.0 8.3 8.4 6.9 6.5 6.5 6.9 6.5 6.5 6.5 6.7 6.7 6.5 6.5 6.6 7.0 7.2 7.1 7.4 7.4 7.1 7.3 7.4
1.1 1.3 0.9 0.5 0.0 0.2 0.3 0.8 1.3 1.5 1.6 2.1 2.5 2.5 2.5 2.6 2.9 4.6 9.4 10.0 10.0 8.9 7.2 7.4 9.1 9.2 9.7 9.6 9.3 9.3 9.0 8.3 7.5 6.9 6.7 6.5 6.9 6.6 6.7 6.6 6.5 6.9 6.5 6.5 6.5 6.8 6.8 6.9 7.3 7.2 7.1 7.1 6.9 6.9
1.2 1.3 0.8 0.5 0.1 -0.0 0.2 0.5 1.1 1.4 1.7 2.4 3.1 3.1 3.1 3.2 2.9 7.4 8.2 9.7 9.8 9.8 7.9 6.5 8.9 8.7 9.2 9.3 9.0 8.8 8.8 8.5 8.2 7.6 7.2 7.5 8.0 6.9 6.5 6.5 6.8 7.5 7.6 7.3 6.9 7.2 7.1 7.4 7.3 7.5 6.9 7.0 6.7 5.8
1.5 1.6 0.8 0.6 0.2 -0.1 -0.1 0.2 0.7 1.0 1.6 2.5 3.3 3.4 3.4 3.5 6.6 7.6 8.3 8.1 6.3 9.2 8.0 7.0 6.8 8.6 9.0 9.0 8.8 8.7 8.8 8.3 8.1 7.7 7.1 7.2 7.1 7.4 6.5 6.5 6.9 7.5 7.8 7.8 7.7 7.1 7.1 7.4 7.1 7.2 7.0 7.2 6.8 6.2
1.6 1.7 0.9 0.6 0.2 -0.1 -0.3 -0.1 0.4 0.5 1.0 2.0 3.2 3.7 3.8 3.8 4.6 7.6 9.4 5.1 6.5 8.9 8.7 6.5 6.6 7.2 9.0 7.6 7.3 8.6 7.7 7.4 7.8 7.4 7.6 7.0 7.4 7.3 6.5 6.8 7.3 7.6 7.8 7.9 8.1 8.0 7.8 7.9 7.8 7.6 7.6 7.3 7.4 7.1
1.5 1.6 1.3 0.6 0.2 -0.3 -0.6 -0.3 0.1 0.5 0.7 1.7 3.1 4.1 6.8 7.9 8.7 8.3 4.6 5.5 9.0 8.8 7.2 7.2 6.5 6.5 8.7 7.7 8.0 8.1 8.1 6.5 7.7 6.6 6.8 7.2 6.5 6.5 6.6 7.0 7.3 7.6 7.6 7.8 8.2 8.3 8.2 8.0 7.7 7.7 7.7 7.5 7.4 7.1
1.7 1.7 1.4 0.6 0.0 -0.4 -0.6 -0.4 0.1 0.5 0.8 1.9 4.9 8.7 8.1 8.5 4.2 5.1 8.5 8.1 8.1 8.4 8.5 7.1 8.0 6.5 7.9 7.5 6.9 6.9 7.6 6.5 6.5 6.6 7.5 6.5 6.5 7.3 7.6 7.8 7.9 8.0 8.1 8.2 7.8 7.5 7.8 7.9 7.8 7.9 7.7 7.5 7.3 7.4
1.8 1.8 1.3 0.4 -0.1 -0.5 -0.6 -0.2 -0.1 0.4 0.6 7.4 8.8 8.1 9.0 4.5 8.7 8.2 7.4 7.3 7.5 6.9 7.9 7.9 7.7 6.8 8.3 6.6 6.5 7.5 6.5 6.5 6.5 6.5 6.5 6.5 6.5 6.8 7.9 7.9 8.2 8.2 8.3 8.2 8.3 8.3 8.4 8.4 8.3 8.2 8.1 8.2 6.7 7.1
1.9 1.8 0.8 -0.1 -0.6 -0.9 -0.9 -0.3 -0.3 2.6 9.7 5.6 6.6 7.3 9.6 8.3 8.0 6.9 6.5 7.0 6.6 6.5 7.3 7.1 7.4 7.9 7.8 8.2 7.0 7.0 6.5 6.5 6.5 7.1 6.5 6.5 6.5 7.5 7.7 8.0 8.2 8.3 8.3 8.3 8.5 8.4 8.4 8.4 8.5 8.4 8.6 8.5 7.4 6.9
1.9 1.3 -0.0 -1.1 -1.8 -1.7 -1.1 -0.5 -0.5 0.7 2.2 9.6 8.6 8.0 7.8 7.6 6.5 6.5 6.5 6.5 6.5 7.0 7.6 7.7 6.8 7.6 7.9 7.9 6.9 6.5 6.5 6.5 7.0 6.5 6.5 6.5 7.1 7.7 7.8 8.1 8.3 8.6 8.5 8.4 8.4 8.5 8.6 8.5 8.6 8.6 8.5 8.8 8.7 8.5
1.8 0.5 -0.5 -0.9 -1.1 -0.8 -0.1 0.3 0.2 0.8 4.4 8.4 7.4 6.5 6.5 6.5 6.5 6.5 6.5 6.6 7.4 7.9 7.9 7.7 7.2 7.3 7.4 6.7 6.6 6.5 6.5 6.6 6.5 6.5 6.5 6.5 7.2 7.7 7.9 8.2 8.3 8.3 8.5 8.4 8.5 8.4 8.4 8.6 8.5 8.8 8.6 8.7 8.7 8.5
1.4 0.1 -0.7 -0.7 0.5 0.5 0.3 -0.1 -0.3 3.3 9.0 7.8 7.6 6.5 6.5 7.4 7.7 7.8 7.9 7.8 8.0 8.1 7.7 7.5 5.6 7.2 6.4 6.5 6.5 6.5 6.5 6.5 6.5 6.5 6.5 7.2 7.8 8.0 7.4 8.0 8.3 8.3 8.4 8.5 8.7 8.5 8.4 8.5 8.7 8.6 9.0 9.0 9.0 8.9
0.8 -0.9 2.1 0.6 0.7 0.1 -0.6 -0.1 1.1 8.3 9.0 8.1 7.7 6.9 7.4 7.0 7.2 7.7 7.9 7.3 8.2 8.5 8.2 7.7 6.6 6.5 6.5 6.5 6.5 6.5 6.5 6.5 6.5 6.6 7.7 8.0 7.8 8.1 8.1 8.3 8.4 8.5 8.6 8.6 8.7 8.8 8.7 8.6 8.6 8.8 9.1 9.2 9.1 9.1
-0.4 8.4 0.2 0.4 -0.1 -0.8 0.4 4.7 9.4 8.5 8.1 7.6 7.3 8.1 7.8 7.5 7.1 6.6 7.7 8.2 8.9 7.9 6.5 6.8 6.5 6.5 6.7 6.5 6.5 6.5 6.5 6.5 7.4 7.7 8.0 8.0 8.0 8.1 8.4 8.5 8.6 8.6 8.5 8.6 8.6 8.8 8.8 8.9 8.9 8.9 8.6 8.9 9.1 9.1
7.4 5.5 -0.7 0.1 1.5 0.4 5.7 6.2 8.8 8.2 7.3 7.7 7.0 7.5 7.8 8.0 8.0 7.9 8.5 8.8 8.5 7.9 7.5 6.7 7.3 6.5 6.5 6.5 6.5 6.6 7.5 8.0 8.2 8.2 8.3 8.4 8.4 8.5 8.8 8.6 8.7 8.7 8.5 8.7 8.8 8.8 8.5 8.9 8.6 8.7 8.8 9.0 9.1 9.1
4.9 2.8 0.1 -1.1 0.9 5.6 8.7 8.7 8.9 7.3 7.4 7.7 8.0 7.8 8.1 8.2 8.4 8.6 8.7 8.6 8.7 8.6 7.9 7.4 6.5 6.5 6.5 7.0 7.1 7.5 7.7 7.7 7.6 7.9 8.2 8.5 8.6 8.6 8.6 8.8 8.8 8.7 8.7 8.5 8.7 9.0 8.9 9.0 9.1 9.3 9.3 9.3 9.0 9.3
-1.1 -0.8 -0.7 -0.6 0.0 8.6 8.1 8.3 9.1 8.0 7.2 7.7 8.2 8.0 7.9 8.0 8.4 8.1 8.2 8.3 8.0 7.9 7.2 6.6 6.7 7.3 7.2 7.9 8.2 8.0 7.9 8.3 8.1 8.0 8.0 8.7 8.8 8.7 8.6 8.8 9.0 8.9 9.1 8.8 9.0 5.0 9.1 8.9 9.1 9.4 9.5 9.1 9.2 9.2
-0.1 2.6 -0.1 2.8 5.1 8.2 8.7 8.3 8.0 8.1 8.1 7.7 8.2 8.1 7.8 8.3 7.7 7.8 7.9 8.1 7.6 7.4 7.0 7.8 7.8 8.3 8.6 8.7 8.8 8.6 8.4 8.5 7.7 8.3 8.1 7.5 8.9 8.9 8.9 9.1 9.0 9.1 8.9 8.9 8.7 8.3 7.1 8.9 9.1 9.3 9.2 9.2 9.3 9.4
7.8 2.3 8.9 5.7 8.8 8.7 8.5 8.9 8.2 8.4 8.0 7.9 7.8 8.0 7.4 7.3 7.4 7.8 8.4 7.6 7.6 8.0 8.2 8.3 8.2 8.3 8.2 8.2 8.5 8.6 8.6 8.7 8.6 7.3 5.3 6.6 8.6 8.5 8.8 9.0 9.1 8.9 9.0 8.7 8.9 8.9 9.0 9.3 9.4 9.5 9.5 9.5 8.0 9.5
2.4 4.9 8.8 9.0 8.0 6.6 6.5 8.9 7.5 7.8 6.7 7.1 7.6 6.9 7.0 7.2 7.7 8.4 7.3 7.9 8.0 8.6 8.7 8.3 8.5 8.7 8.6 8.8 8.8 8.4 8.9 8.7 8.4 8.5 8.8 9.0 9.2 9.1 9.1 9.2 9.2 8.9 8.9 9.0 9.4 9.2 9.3 4.8 7.8 9.3 9.3 9.4 9.3 9.3
2.2 8.7 8.0 7.8 7.7 6.5 8.1 7.4 8.0 7.5 7.4 6.9 6.6 6.5 6.6 7.3 8.0 7.2 6.5 7.3 8.1 8.5 8.7 8.4 8.8 8.7 8.6 8.2 8.5 8.7 9.0 8.9 6.6 8.0 9.1 8.0 8.9 8.9 9.2 9.2 9.5 9.3 9.4 9.5 9.4 6.9 9.4 9.5 7.7 9.3 9.3 9.2 9.1 9.2
6.7 5.9 6.4 3.5 7.9 7.1 6.6 6.6 6.8 6.6 6.5 6.5 6.5 6.5 6.8 7.7 6.5 6.5 6.5 7.5 8.2 8.4 8.7 8.8 8.8 8.4 8.4 8.7 9.0 9.1 9.2 9.5 8.9 8.5 9.0 9.2 9.1 8.6 9.2 9.3 9.3 9.6 9.8 9.4 9.2 9.2 9.2 9.4 9.2 9.4 9.2 9.3 9.1 9.1
6.5 7.4 5.3 7.1 7.1 6.7 6.6 6.5 6.5 6.5 6.5 6.5 6.6 7.3 7.5 6.7 6.5 6.5 6.8 7.9 8.3 8.5 8.6 8.6 8.7 8.7 8.7 9.0 8.9 9.1 9.3 9.8 9.4 8.7 9.2 9.4 9.3 9.1 8.7 8.4 8.6 9.0 9.8 9.7 9.4 9.1 6.6 9.0 9.2 9.2 9.2 8.5 6.2 8.9
6.5 6.7 7.9 8.5 8.0 7.7 7.1 7.4 7.5 6.9 6.5 6.5 6.6 6.6 6.5 6.5 6.5 6.9 8.2 8.7 8.7 9.1 9.3 9.3 9.3 9.1 9.1 9.2 9.4 9.6 9.9 9.9 9.5 9.5 9.7 9.8 9.7 9.7 9.3 8.8 8.6 9.4 10.0 9.8 9.7 9.5 9.3 9.2 8.9 9.3 9.2 9.4 9.5 9.3
7.6 7.6 6.6 7.5 7.5 7.8 6.8 6.8 6.5 6.5 6.6 7.5 7.2 6.5 6.5 6.5 6.5 8.0 8.5 9.1 9.4 9.5 9.6 9.6 9.7 9.7 9.6 9.6 9.8 9.7 9.7 9.9 9.8 9.9 10.0 9.9 9.9 10.1 9.9 9.9 10.0 5.8 9.6 9.5 9.7 9.8 9.4 9.4 9.6 9.5 9.3 9.3 9.3 9.6
7.5 8.1 7.9 6.9 7.3 7.3 7.2 6.9 6.9 7.4 8.1 7.8 6.7 6.5 7.1 8.1 8.6 8.8 9.1 9.4 9.6 9.4 9.1 9.1 9.2 9.6 9.7 9.8 9.8 9.9 9.9 9.7 9.0 8.4 8.3 8.6 8.9 9.2 9.8 9.9 9.9 9.8 10.0 10.0 3.3 6.5 8.8 9.3 9.5 9.7 9.6 9.4 9.6 9.7
7.4 8.3 7.4 7.1 6.7 6.5 7.1 8.1 7.9 8.5 8.6 8.6 8.5 8.4 8.3 8.6 9.1 9.6 9.5 9.4 9.1 9.0 9.3 9.4 9.5 9.3 9.1 9.2 9.3 9.4 9.9 9.9 9.8 9.3 8.7 8.8 9.2 9.8 9.8 9.7 9.7 9.8 9.9 9.8 9.8 9.7 5.8 8.6 6.9 9.8 9.2 9.6 9.6 9.5
8.2 8.0 7.5 7.3 6.9 7.5 8.2 8.6 8.7 8.7 8.6 8.4 8.5 8.1 7.9 8.3 9.0 9.5 9.5 9.4 9.4 9.4 9.2 9.1 9.3 9.5 9.3 9.2 9.1 9.1 9.2 9.9 9.9 9.8 9.8 10.0 10.0 9.9 9.9 9.9 10.0 10.0 9.9 9.8 9.7 9.6 9.6 9.3 9.5 9.4 9.3 9.2 9.3 9.0
7.9 7.4 7.2 6.5 6.8 8.2 8.4 8.2 8.0 7.9 8.1 7.9 7.9 8.2 8.2 8.1 7.6 8.6 9.4 9.5 9.3 9.1 5.2 9.1 9.2 9.3 9.6 9.8 9.9 9.8 7.1 10.0 10.0 10.0 9.8 10.0 10.0 10.0 10.1 10.1 10.2 10.2 9.9 9.8 9.7 9.6 9.5 9.4 9.3 9.3 9.2 9.2 9.2 9.3
7.6 7.5 7.6 7.4 7.2 7.2 7.9 7.8 7.5 7.3 7.6 7.5 7.6 7.9 8.0 7.8 7.3 8.5 9.6 9.8 9.5 9.4 9.4 9.6 9.8 9.9 9.7 9.8 9.8 9.5 10.2 9.4 4.4 1.5 2.2 1.5 1.0 3.9 8.7 10.2 10.2 10.0 9.9 9.7 9.7 9.7 9.5 9.4 9.3 9.3 9.3 9.3 9.3 9.3
Wind_Speed
15 16 18 16 12 12 12 12 11 8 6 5 3 1 1 2 3 5 4 3 4 3 7 7 3 3 1 1 3 7 2 3 2 2 2 3 3 3 4 9 2 8 8 9 15 9 16 8 6 5 5 12 18 20
15 15 17 14 11 10 11 11 9 6 5 5 3 0 2 2 5 6 2 1 4 2 5 3 6 2 1 1 3 6 2 3 3 2 1 2 2 2 4 1 7 3 4 5 5 5 3 4 9 10 7 12 22 17
13 14 16 13 9 8 9 8 7 4 3 3 3 0 3 4 5 6 5 2 4 5 5 4 2 5 1 1 4 1 2 4 4 3 1 1 3 2 3 4 4 9 11 4 8 2 10 12 10 6 8 18 21 12
13 13 15 13 9 7 7 7 6 4 2 2 1 1 2 4 6 8 8 3 5 5 3 2 2 3 2 4 2 3 5 4 5 4 1 1 2 2 2 3 3 3 7 6 5 6 13 4 4 8 15 19 10 6
12 12 14 13 10 6 6 6 7 5 4 6 7 5 4 5 7 11 11 6 3 5 4 2 5 8 5 4 4 4 5 4 3 3 2 1 1 2 3 2 2 5 3 2 3 8 8 9 11 11 15 9 8 7
11 11 14 13 10 6 6 6 7 6 4 5 6 7 6 5 6 4 2 3 1 4 3 3 2 5 8 8 9 8 7 4 4 3 3 3 6 3 3 2 3 5 4 4 4 10 10 7 6 11 14 7 7 8
10 11 13 13 11 7 6 6 8 7 4 4 4 5 7 6 7 3 5 4 8 4 3 4 2 4 4 7 6 7 5 4 4 3 2 1 1 4 2 2 4 5 6 6 9 11 6 8 6 11 12 8 8 8
9 11 13 13 11 8 7 7 8 8 6 5 5 5 5 5 10 5 3 4 4 3 5 4 2 3 6 2 2 3 4 1 4 3 0 3 3 4 2 5 5 4 5 8 8 7 9 8 10 11 9 10 8 8
9 11 13 13 11 8 7 7 8 7 5 5 6 4 6 4 3 2 7 4 5 3 3 2 4 3 4 2 3 3 3 2 3 1 2 4 1 2 5 6 5 7 7 10 10 11 9 11 12 13 12 12 11 11
9 12 14 13 11 9 6 7 7 5 5 6 6 4 3 2 13 8 4 3 4 3 4 4 4 6 6 4 4 1 3 2 2 3 3 3 3 6 3 2 3 4 5 8 11 11 12 14 14 13 13 11 10 11
10 13 15 15 13 9 6 6 6 6 7 4 4 1 5 8 3 2 3 5 3 4 5 6 5 7 3 3 4 4 3 3 2 4 2 3 2 2 3 2 3 2 2 4 4 5 8 11 12 12 12 13 12 13
12 15 17 17 14 9 6 9 10 5 3 3 4 3 1 2 4 6 4 4 4 4 4 5 5 5 3 2 3 3 3 3 3 1 1 3 2 5 2 3 3 3 3 1 4 7 9 10 10 10 10 10 10 9
13 17 19 19 11 6 8 13 18 11 12 5 4 3 4 3 2 4 4 4 3 6 6 8 6 4 3 2 4 4 5 3 4 3 3 3 4 6 1 1 4 5 2 2 2 2 6 6 6 7 8 9 8 9
15 16 15 6 6 1 5 8 10 7 5 4 4 3 4 4 4 4 7 6 9 11 13 10 9 8 4 4 3 3 5 3 4 2 1 2 1 5 1 2 3 4 5 4 4 4 5 9 6 9 7 5 7 6
17 17 12 5 5 7 7 8 13 8 4 4 3 2 6 8 7 9 7 10 7 5 5 5 2 6 2 3 1 3 2 2 2 3 2 5 7 5 7 3 3 5 8 4 3 5 4 4 8 8 9 8 8 8
19 14 4 4 6 5 5 12 7 3 3 3 4 8 8 7 9 9 10 7 6 9 5 2 3 4 2 1 2 3 4 1 3 4 8 8 6 6 6 6 5 2 5 2 3 4 7 4 6 8 8 8 8 7
18 1 10 5 5 2 7 3 4 5 4 3 5 5 8 6 7 6 7 8 8 6 2 2 1 0 3 2 1 2 2 2 4 5 3 4 3 5 6 5 7 6 4 2 4 3 3 2 2 4 6 6 5 4
3 8 9 5 5 3 3 4 4 4 6 8 7 5 7 6 7 8 8 8 7 5 3 3 2 2 1 3 1 1 4 5 4 3 2 3 3 4 6 6 6 7 1 6 3 6 8 6 3 3 2 4 2 5
13 18 9 10 6 4 3 5 4 4 5 4 4 1 4 4 3 3 5 2 3 4 6 2 2 1 2 3 4 3 2 5 3 4 3 2 4 3 5 7 7 7 2 3 7 5 3 3 5 5 5 6 6 6
21 15 11 10 14 3 4 3 2 5 4 2 3 7 5 3 3 1 2 5 3 1 4 3 1 3 3 4 3 3 6 5 5 4 5 7 8 6 2 6 6 7 6 2 3 5 2 4 5 5 7 5 6 7
6 6 12 10 5 5 4 3 4 3 4 5 3 4 3 3 1 3 5 2 4 4 4 4 2 2 4 6 5 6 7 8 9 2 4 7 5 6 5 4 5 5 4 3 3 5 4 3 3 4 2 4 4 4
3 6 3 5 4 5 4 4 4 5 3 5 3 2 3 5 5 5 5 6 4 5 5 5 4 5 6 7 7 7 8 8 7 2 4 4 4 2 5 4 5 6 5 1 4 2 2 5 4 3 5 4 4 7
2 4 4 4 3 1 5 2 3 2 3 3 3 1 3 4 3 1 3 6 3 3 3 3 4 6 8 7 5 8 5 3 3 4 5 3 6 3 4 4 4 5 5 5 8 5 6 1 5 2 2 3 3 4
1 3 3 4 7 4 3 4 4 3 2 3 2 3 4 4 2 2 4 2 3 3 5 4 4 6 6 6 3 4 7 3 6 2 3 2 6 4 1 4 6 5 5 6 5 6 2 6 1 3 1 4 2 5
3 4 3 4 4 3 4 3 3 2 2 2 1 2 3 1 4 3 5 7 7 7 6 6 7 4 5 7 9 8 8 8 5 6 2 3 4 4 6 5 2 7 6 6 7 5 4 7 5 6 1 6 5 7
2 6 4 5 4 4 1 3 1 2 4 2 1 3 1 2 2 3 4 6 6 6 5 4 6 7 7 7 7 7 8 7 7 5 6 5 6 4 4 2 3 1 2 4 4 7 6 4 6 5 7 6 4 6
3 6 5 3 3 2 4 2 2 3 2 2 1 2 2 2 2 3 3 4 5 5 4 5 5 6 6 6 5 6 7 7 8 9 11 7 7 4 5 3 3 7 4 6 8 6 5 10 4 5 4 3 6 3
5 3 7 7 4 3 3 2 2 3 2 3 2 2 4 4 4 2 3 4 5 5 6 5 5 6 6 6 6 5 5 6 5 6 8 8 6 6 5 6 8 8 7 10 9 5 7 4 6 8 6 4 4 5
5 6 5 4 4 3 4 3 3 1 2 3 2 2 2 2 3 4 4 4 3 2 3 3 2 1 5 6 5 5 5 5 4 7 6 7 4 5 5 4 2 2 5 8 11 11 11 8 9 8 6 3 2 3
6 5 5 4 4 5 4 1 4 4 1 3 2 3 3 3 4 4 5 4 3 3 4 3 4 3 4 4 6 6 6 5 6 5 4 6 7 6 5 5 2 4 4 4 7 8 3 4 5 3 2 3 3 3
2 5 5 5 3 1 4 3 1 2 3 3 1 4 3 4 4 5 4 3 4 4 4 4 4 4 4 4 4 5 6 5 6 7 5 5 4 6 7 3 2 1 2 3 4 3 2 1 4 4 4 6 6 4
5 5 5 5 4 6 2 4 4 4 5 4 4 3 4 4 5 5 4 5 5 5 4 1 5 5 5 5 5 5 6 6 5 4 4 5 5 4 3 3 2 3 3 3 2 4 1 3 3 4 3 3 4 5
7 5 4 4 1 2 4 3 3 3 4 4 3 5 5 4 2 3 5 6 5 5 5 6 6 7 7 6 7 6 6 8 9 9 10 11 13 12 7 3 3 2 3 2 3 4 2 2 2 2 3 2 3 4
Wind_Direction
306 321 324 324 337 338 343 337 332 343 352 10 33 344 92 139 267 275 79 2 305 18 73 36 61 9 195 79 328 10 288 57 354 290 306 355 316 345 287 275 265 210 198 214 233 245 252 32 295 276 357 321 311 304
304 322 324 322 333 336 340 337 334 348 355 16 26 261 153 164 253 279 253 121 315 283 15 18 55 52 163 280 334 334 13 63 49 290 348 300 285 291 288 266 299 231 326 273 236 242 71 17 321 299 301 280 284 283
300 321 322 320 326 331 338 334 330 331 356 1 22 46 177 188 226 268 340 40 235 267 223 159 158 106 154 179 141 207 326 34 137 45 203 257 298 346 332 7 298 0 15 327 334 93 354 323 318 308 302 275 282 280
298 322 319 318 317 328 331 326 313 300 304 306 285 193 201 221 236 273 295 39 283 309 307 158 121 200 300 110 165 215 261 255 274 118 28 336 303 3 348 305 316 326 317 319 263 321 336 86 316 302 299 285 293 260
295 317 318 318 311 320 322 314 295 288 280 263 248 226 218 229 245 271 299 287 290 320 318 251 229 231 201 228 225 237 272 329 216 202 124 15 248 266 259 239 344 352 313 312 294 336 301 295 317 338 310 320 9 359
294 315 318 317 308 310 309 297 284 271 260 260 237 215 217 232 250 275 272 181 18 330 291 275 113 218 195 227 252 254 267 272 265 347 69 170 154 211 315 296 289 12 9 11 324 327 299 328 348 338 323 345 17 14
295 316 316 314 311 304 298 285 274 267 262 253 243 218 214 217 241 262 344 10 345 307 252 272 251 173 218 240 239 248 206 260 291 82 207 256 176 199 279 292 17 43 6 70 32 358 355 2 356 349 346 353 11 29
295 313 317 314 312 302 298 279 266 255 239 242 244 238 214 225 262 265 198 187 254 259 260 264 259 163 182 257 271 274 259 171 261 214 157 65 17 18 276 353 103 100 4 44 48 60 352 24 20 14 11 1 14 31
301 313 314 312 311 304 292 273 256 251 236 227 223 223 214 228 235 80 116 172 229 269 269 250 301 354 169 266 299 190 236 232 238 159 251 110 156 233 262 346 14 44 31 3 40 29 29 45 32 27 24 17 19 23
306 311 310 308 310 308 289 266 247 244 216 201 223 210 217 122 125 140 171 201 212 206 226 256 272 298 234 170 223 167 227 255 193 232 137 193 228 204 144 51 48 19 44 19 11 18 15 11 44 41 32 25 25 23
306 309 310 308 305 304 280 243 217 188 169 213 230 105 88 141 222 221 233 226 161 232 192 247 267 310 284 302 277 251 189 233 230 199 227 219 14 134 16 41 52 158 92 73 54 33 17 18 17 32 37 35 32 20
310 313 310 306 296 287 250 212 194 210 316 41 326 250 148 217 225 248 247 174 226 253 208 248 323 303 342 27 272 212 232 225 206 313 239 341 336 101 350 13 341 54 3 67 19 23 23 17 19 19 35 48 60 47
314 318 317 312 286 246 224 209 213 265 303 229 224 213 207 222 296 207 317 296 247 242 319 308 293 218 122 234 243 252 234 167 191 146 179 227 190 101 189 16 346 353 121 193 42 30 350 42 25 21 32 28 31 40
320 319 322 333 49 155 219 219 217 215 257 245 222 254 249 215 240 255 305 338 323 345 340 356 358 307 164 196 267 269 360 280 24 5 242 123 265 96 5 41 295 346 338 43 97 34 1 359 22 26 35 56 38 60
320 314 305 234 333 329 276 218 190 197 271 256 254 251 239 258 328 345 355 344 339 348 1 340 287 238 346 336 304 94 253 50 206 9 9 70 23 360 70 330 333 352 321 17 20 104 110 338 4 34 24 23 39 52
319 314 172 102 349 327 147 140 169 238 243 247 241 257 285 316 348 351 337 360 339 329 353 34 310 48 57 267 288 27 337 13 15 312 352 62 44 35 13 354 326 287 272 342 8 5 62 16 33 32 24 8 51 23
314 247 142 88 40 95 189 262 200 221 254 243 249 275 358 331 339 18 334 345 342 318 37 65 345 307 288 26 0 278 219 245 291 291 3 48 20 337 329 328 335 311 304 96 314 24 349 52 56 46 19 10 36 50
258 137 142 91 328 139 216 216 252 246 234 242 262 335 8 25 9 351 16 16 343 18 15 50 341 330 335 275 281 352 270 264 252 279 327 17 316 319 308 320 315 307 296 278 274 46 35 293 299 51 20 6 18 38
293 303 273 282 250 287 230 199 242 266 244 303 339 23 15 40 54 18 63 81 57 32 126 100 35 333 278 318 296 277 251 285 300 258 263 217 275 334 304 285 272 265 278 68 262 111 226 310 5 338 10 15 29 39
284 277 265 220 193 250 233 201 210 275 279 14 307 5 29 72 307 123 62 36 92 337 34 28 351 249 331 2 303 313 332 312 293 313 317 294 292 266 186 312 339 330 269 180 191 357 48 50 341 356 27 33 352 41
204 124 125 157 202 240 292 268 222 295 333 300 45 345 60 279 29 3 11 46 27 16 25 19 43 202 341 353 320 306 295 297 300 320 241 271 316 343 330 328 329 316 84 103 187 170 217 106 265 248 123 38 35 23
93 172 240 174 256 196 252 239 284 336 276 293 340 344 13 4 359 36 324 42 19 2 20 33 3 347 323 313 303 303 302 290 278 356 283 267 294 351 285 1 351 353 5 271 165 32 351 151 249 37 40 74 340 47
218 207 224 221 247 215 266 268 255 227 268 351 288 4 24 1 55 52 45 9 64 312 347 51 340 312 295 292 344 6 350 334 244 226 227 277 253 245 41 343 310 349 16 359 2 100 149 212 85 33 292 21 70 33
187 255 232 215 198 251 188 236 198 266 257 269 339 8 28 13 281 72 48 6 26 52 54 21 344 311 312 212 294 88 17 19 101 208 17 83 310 16 358 47 37 359 335 351 38 358 7 109 4 68 304 75 49 38
246 262 161 259 249 234 235 231 209 240 282 351 305 22 41 326 359 71 348 21 24 35 16 343 321 4 335 3 354 17 18 347 351 116 41 65 112 43 39 41 334 17 356 14 4 309 112 84 64 98 172 66 37 25
255 195 188 217 184 230 286 304 341 323 335 318 100 63 290 336 349 46 37 13 17 31 19 341 351 5 26 21 8 13 8 357 318 90 77 61 56 30 40 61 308 78 4 339 334 71 0 254 138 94 72 96 64 331
247 208 191 225 294 291 262 176 290 298 260 247 345 69 276 284 43 80 84 45 40 53 36 20 34 25 24 24 24 52 35 44 35 56 75 59 51 25 56 85 76 13 17 15 6 40 21 75 36 46 110 63 83 71
248 272 219 177 218 228 278 301 245 223 245 82 262 204 327 14 31 78 84 94 81 64 58 56 53 51 44 24 14 12 113 129 124 85 83 72 55 67 53 47 50 8 20 33 352 78 103 233 73 65 42 51 37 54
232 201 227 225 233 192 220 237 257 150 36 261 252 4 97 77 110 143 139 125 150 154 102 85 86 174 107 84 49 28 10 348 49 130 156 123 122 85 80 98 206 178 99 103 62 43 25 35 26 32 70 87 22 30
219 201 222 210 213 228 187 284 3 57 299 338 82 125 121 138 105 121 152 162 185 130 71 68 62 49 55 79 76 52 42 27 15 35 59 90 107 120 108 143 110 99 86 97 108 121 157 230 143 170 59 37 55 25
157 183 247 258 235 117 52 90 192 213 217 209 185 299 149 120 155 214 219 160 127 145 157 125 91 53 51 49 90 113 95 81 64 52 50 108 126 111 125 127 118 144 92 94 63 60 90 50 48 46 37 32 49 355
202 232 229 234 227 112 184 228 217 229 185 201 203 166 145 189 194 176 191 177 186 173 52 128 116 99 88 83 78 75 33 109 126 102 83 80 92 98 130 134 146 107 119 116 83 71 36 35 48 40 43 34 17 340
214 225 249 294 216 204 184 225 246 256 232 231 223 184 207 213 245 120 160 209 222 151 149 114 115 115 112 101 97 99 68 78 76 61 59 48 33 3 307 87 80 126 205 151 124 126 129 80 62 39 23 353 343 351